Theta_e
349 347 345 342 336 334 335 335 333 331 332 328 317 315 318 324 333 333 332 330 326 326 326 324 322 323 323 325 331 339 342 343 343 343 343 343 342 342 342 342 343 343 343 342 342 342 342 341 341 341 341 340 340 339 338 336 335 334 333 330 326 325 325 326 329 332 334 333 332 333 332 331 330 330 331 332 331 331 331 330 330 330 330 330 330
348 347 346 341 337 335 335 335 334 331 332 329 318 316 318 322 334 338 337 336 335 335 336 335 332 331 331 334 339 342 343 342 343 342 342 342 341 341 342 342 342 342 342 342 342 342 342 341 341 341 341 340 339 339 338 337 335 334 333 329 328 327 324 323 326 329 331 330 329 330 330 330 332 332 331 331 330 329 330 329 329 329 330 331 330
348 347 345 340 337 336 335 336 334 332 332 329 320 317 318 321 332 340 339 339 339 340 340 340 340 339 337 338 340 342 342 342 342 342 342 342 341 342 342 342 342 342 342 342 341 341 341 340 339 339 339 339 339 338 337 337 335 334 333 331 329 328 324 321 324 327 327 328 330 331 331 331 331 332 332 332 331 330 329 329 329 330 330 331 330
347 346 344 340 336 336 335 336 334 332 332 329 322 317 318 320 330 338 340 341 340 341 341 342 343 342 341 340 341 342 342 342 342 343 343 343 342 342 342 342 342 342 342 341 341 340 340 340 339 339 339 338 338 337 337 336 335 335 334 332 330 327 324 321 324 325 323 326 330 330 330 331 331 331 331 330 330 329 329 330 330 330 330 331 330
347 344 343 340 336 336 335 337 336 333 333 329 323 318 317 322 330 337 339 340 340 341 342 342 342 343 342 342 342 342 342 342 343 343 343 343 342 342 342 342 342 342 342 341 340 340 340 339 338 338 337 337 337 337 337 336 335 336 335 334 331 328 326 323 325 327 326 327 327 326 326 328 330 330 330 330 330 330 330 331 331 331 331 331 330
346 344 343 340 336 336 335 336 337 333 333 330 325 320 318 322 331 337 339 339 339 340 341 342 343 342 342 342 342 342 342 342 343 343 343 342 342 343 343 342 342 342 341 341 341 340 339 338 338 336 336 336 336 336 336 336 336 336 336 335 333 330 327 324 326 330 330 330 329 328 327 327 329 330 331 331 330 330 331 330 330 330 331 330 329
345 345 344 339 336 335 335 336 336 334 333 331 326 321 319 322 329 337 339 339 339 340 341 342 342 342 342 342 342 342 342 343 343 343 343 343 343 343 342 342 342 342 341 341 341 339 339 338 337 335 334 335 335 334 334 335 334 334 334 334 334 333 330 325 327 330 331 331 331 331 331 330 330 330 332 331 330 330 330 329 330 329 330 329 329
346 346 344 339 336 334 334 336 336 335 334 331 326 321 323 327 332 337 338 338 339 339 341 342 342 342 342 342 342 342 342 343 343 342 343 343 342 343 342 342 342 342 341 341 340 339 339 338 336 335 334 333 332 331 330 330 330 330 330 331 333 334 333 327 326 330 331 332 332 332 332 333 332 333 334 333 333 331 329 329 330 330 331 330 330
346 346 344 339 336 334 334 335 335 335 333 331 326 322 328 333 334 337 338 338 339 339 341 341 342 342 342 342 342 342 342 342 342 342 342 342 342 342 342 342 341 341 340 339 339 339 339 338 337 335 331 330 329 328 328 328 328 329 330 332 332 333 333 327 326 330 332 333 333 333 334 334 334 335 335 333 332 329 327 330 331 331 331 331 331
346 345 343 338 336 335 334 335 335 335 334 331 327 324 331 335 335 337 338 338 339 339 341 342 341 342 342 342 343 343 342 342 342 342 342 342 341 341 341 341 340 340 339 337 338 338 337 336 335 333 329 326 326 326 328 329 331 331 331 332 332 333 331 327 327 330 332 333 331 331 333 334 334 334 333 332 330 326 327 331 331 331 331 331 332
345 345 342 338 338 336 334 335 335 335 335 333 328 327 332 334 334 336 337 339 340 340 341 342 342 342 342 342 343 343 342 342 342 341 341 341 340 340 340 340 340 339 338 336 334 334 334 333 333 331 327 325 326 328 330 331 332 332 332 332 332 332 330 328 329 330 331 331 329 328 332 333 334 334 332 331 329 328 329 331 330 330 330 330 330
345 345 341 340 340 338 337 337 337 336 335 334 330 331 333 332 333 334 336 339 340 339 341 342 342 342 342 342 342 342 341 341 341 341 340 340 339 339 339 339 339 338 337 335 333 331 330 328 328 326 324 324 327 329 331 332 332 332 332 331 331 331 329 328 330 331 331 331 329 329 332 333 334 333 331 330 329 329 330 330 329 329 328 328 329
345 344 342 342 341 339 338 339 339 337 336 335 333 334 334 333 333 334 336 339 340 339 340 342 342 342 342 342 342 341 341 341 340 340 340 339 338 338 338 338 337 337 336 333 331 329 327 326 323 322 322 324 328 330 331 332 332 332 332 331 330 329 329 329 330 332 332 331 329 329 331 332 333 332 331 331 329 329 329 329 329 329 327 327 328
344 342 343 343 342 340 339 340 340 338 337 336 335 333 333 332 330 332 334 337 340 340 339 341 341 342 342 342 341 340 340 340 339 339 337 336 335 335 336 335 333 332 331 328 326 325 325 324 322 320 321 325 328 330 331 332 332 332 332 330 330 330 330 330 330 331 331 330 328 328 329 330 331 330 332 331 329 329 329 328 329 328 328 327 327
343 342 343 343 342 341 340 339 339 338 336 335 334 332 332 330 327 328 331 334 338 339 339 340 341 342 341 341 340 340 340 339 338 335 332 331 330 330 331 331 327 325 325 325 325 324 323 322 320 320 321 324 328 330 331 332 333 332 331 330 331 331 331 330 329 329 329 328 328 327 328 329 330 331 332 331 329 329 328 328 328 328 327 326 326
343 343 343 342 342 342 341 340 339 337 336 335 334 334 333 329 328 328 329 334 337 338 339 340 341 341 341 341 340 340 340 339 337 335 333 333 331 329 327 327 325 324 326 327 326 324 322 320 319 319 321 324 327 330 331 332 333 333 332 331 332 331 330 329 328 328 328 328 327 326 327 329 330 332 332 330 328 328 328 327 328 328 326 326 327
343 342 342 342 342 342 341 340 340 338 337 337 336 335 332 330 331 330 331 335 337 339 339 340 340 340 340 340 340 340 340 339 338 337 336 335 334 332 329 327 325 326 327 328 326 322 319 318 318 319 321 323 327 330 331 332 333 333 332 332 332 332 331 329 328 326 326 326 326 326 328 330 330 331 330 329 329 329 329 328 328 328 326 326 326
342 342 341 342 342 341 341 341 340 339 338 337 336 334 333 332 331 331 333 334 337 338 338 339 340 340 340 340 340 340 339 338 337 337 336 335 335 335 332 328 326 326 328 328 328 322 317 316 317 319 321 323 328 331 332 332 333 333 333 332 332 331 331 330 328 326 325 324 324 325 328 328 328 329 329 329 329 329 329 327 327 327 326 326 326
341 341 342 341 341 341 340 340 340 339 337 336 335 333 333 333 331 332 333 332 335 337 338 338 338 339 338 338 339 338 338 337 337 336 335 335 334 334 334 331 327 327 328 328 328 324 316 314 316 319 321 323 328 331 332 332 333 334 334 333 332 332 331 330 329 328 326 325 324 324 325 326 327 328 329 329 328 327 328 328 328 328 327 327 326
341 341 342 341 341 340 340 340 339 337 334 332 331 331 333 332 332 333 332 332 335 335 336 337 337 338 337 337 337 337 336 335 336 335 335 335 334 334 334 332 329 328 329 328 329 327 318 313 315 318 320 324 329 331 332 333 333 333 334 333 332 332 331 331 330 329 327 326 325 325 325 326 328 330 330 329 328 329 328 328 328 327 327 326 325
341 341 341 341 340 340 340 339 338 334 331 329 329 332 333 332 332 332 331 334 335 333 334 335 336 337 337 337 336 336 334 334 335 334 335 335 334 334 334 333 330 329 330 329 329 328 322 313 313 318 320 325 329 331 333 334 334 333 333 333 332 332 331 331 331 329 328 326 325 325 325 326 328 330 330 329 329 329 328 327 327 326 327 326 324
341 341 341 341 340 339 339 338 336 332 330 331 331 333 333 331 332 331 332 334 334 333 333 334 335 335 336 336 335 334 334 334 333 332 333 333 333 334 335 333 330 328 329 330 330 329 325 315 313 317 321 326 330 331 333 334 334 333 333 333 332 332 331 331 331 329 327 325 324 323 325 327 329 329 329 328 328 328 326 326 327 326 326 325 325
341 340 341 341 339 339 339 337 334 332 332 332 332 334 332 331 331 332 334 335 334 333 333 334 334 334 334 334 333 333 333 331 330 331 330 329 331 334 335 334 331 329 328 330 330 330 327 317 312 317 322 327 330 332 333 334 334 334 333 332 332 332 332 331 331 330 327 325 324 323 325 327 329 329 329 328 328 328 326 325 326 326 325 325 325
341 340 340 339 339 339 338 335 334 332 332 333 333 334 332 331 332 334 334 335 334 333 333 333 333 334 334 334 333 332 331 330 333 335 333 330 330 331 333 332 331 330 328 329 330 329 329 322 313 317 323 328 331 332 333 333 333 333 333 333 332 332 331 331 331 330 328 326 324 324 325 326 327 328 328 328 328 327 326 326 326 326 325 325 324
340 340 339 339 339 338 337 335 334 333 332 333 334 334 332 332 333 334 334 334 335 334 333 332 332 333 333 332 332 334 335 335 336 337 336 335 334 334 333 330 329 330 329 328 330 330 330 325 316 316 324 329 332 332 332 332 332 332 332 333 333 332 332 331 331 331 329 327 326 324 324 325 326 328 328 328 327 327 327 326 326 326 324 325 324
339 339 338 338 338 337 337 335 334 334 333 333 335 335 334 333 334 334 334 334 334 333 333 333 333 333 332 331 333 336 338 338 338 338 338 338 337 337 336 332 328 328 329 328 329 329 330 328 320 318 325 330 332 332 331 331 331 333 334 333 333 333 333 332 332 332 330 328 327 325 324 324 326 327 328 328 327 326 327 327 326 326 324 324 324
338 338 337 338 338 337 336 334 334 335 335 334 335 336 334 332 334 334 333 334 334 333 333 333 333 333 333 332 333 335 337 338 338 338 339 338 338 337 337 335 331 327 327 328 328 328 329 329 325 322 327 331 331 331 331 330 331 333 333 333 333 333 333 333 333 332 332 329 327 326 323 324 325 325 327 328 328 328 327 326 326 326 324 323 324
337 336 336 338 337 337 335 334 335 335 335 335 335 336 334 333 334 334 333 334 333 333 333 333 332 332 333 334 335 336 336 337 337 337 338 338 339 338 337 337 336 332 328 327 328 328 328 329 328 326 329 331 331 331 331 330 331 332 332 334 334 334 333 333 333 333 333 330 329 327 323 323 325 325 326 327 329 328 326 326 327 326 324 324 323
337 336 337 337 337 336 336 336 336 335 335 334 335 336 334 333 334 334 333 333 333 332 332 331 331 330 332 333 335 336 336 336 336 336 337 337 338 338 338 337 337 336 332 328 326 327 327 328 328 328 329 330 330 330 330 331 331 332 335 336 335 333 333 333 333 333 333 332 330 328 324 324 325 326 327 327 328 328 327 326 327 326 324 324 324
338 339 337 337 337 336 337 338 338 337 335 333 334 334 334 334 334 335 335 334 333 333 333 332 331 331 331 333 334 336 336 336 336 336 337 337 337 337 338 337 337 337 337 333 329 327 327 327 328 329 329 330 330 330 331 331 332 333 335 336 335 334 333 333 333 333 333 332 331 329 325 324 326 327 326 327 328 329 327 327 326 327 326 325 325
340 340 338 337 337 337 338 339 339 339 337 335 333 333 333 334 334 335 335 335 335 335 335 335 334 334 335 336 337 337 337 338 338 337 337 337 337 337 337 338 338 337 338 337 334 332 330 328 328 328 329 330 330 331 332 332 333 334 334 335 336 334 334 333 333 333 333 333 331 330 326 325 327 327 327 327 327 328 328 326 326 327 327 326 325
341 341 340 339 337 337 339 339 339 339 340 339 337 335 334 334 335 335 335 336 337 337 337 337 337 337 338 338 338 338 338 338 338 337 337 337 337 337 338 338 338 338 338 337 337 335 334 332 330 329 328 328 329 331 332 332 332 333 333 335 335 335 334 333 332 333 333 332 331 330 326 325 327 327 327 327 326 327 328 327 326 327 327 326 325
341 342 341 340 339 338 338 338 339 340 340 340 340 339 338 337 337 337 337 337 338 338 338 338 338 338 338 338 338 338 338 338 337 337 336 336 336 337 337 338 338 338 338 337 337 337 336 335 333 332 330 329 329 330 331 331 331 331 332 334 335 335 335 333 333 332 333 332 331 331 327 325 327 327 327 327 325 325 326 327 327 327 327 326 325
341 341 341 340 339 338 337 337 338 340 341 341 340 340 340 339 339 339 338 338 338 338 339 338 338 338 337 338 338 338 338 337 336 336 336 336 336 336 336 337 338 338 337 337 337 337 336 336 335 334 333 333 331 331 332 332 332 332 331 333 334 335 334 334 333 332 332 332 331 331 328 325 326 327 327 327 326 325 325 326 327 328 327 326 325
340 340 340 340 340 338 338 338 339 340 340 341 341 340 340 340 340 340 339 339 339 339 339 338 338 337 337 338 339 338 337 336 335 335 335 335 335 335 336 336 337 337 337 337 337 337 337 336 336 335 335 335 334 334 333 333 333 332 331 332 334 335 334 334 333 332 331 332 331 331 329 326 326 326 327 328 327 325 325 325 326 328 327 326 325
340 341 341 340 341 340 340 341 340 341 340 341 341 341 340 339 339 339 339 339 339 339 338 338 338 338 337 338 338 337 336 336 336 335 334 335 335 335 335 336 336 336 337 337 337 337 337 337 336 336 336 336 335 335 334 334 332 331 331 332 333 334 335 334 334 333 332 331 331 331 330 327 326 326 326 327 327 325 325 325 326 327 326 326 325
341 341 341 341 341 341 341 341 341 341 341 340 340 339 338 338 338 338 339 339 339 339 339 339 339 338 337 337 337 336 336 336 336 335 335 334 334 335 335 335 336 337 337 336 336 337 337 336 336 336 336 336 336 335 335 334 332 331 330 332 333 333 333 333 334 333 332 331 331 330 330 328 327 327 326 325 326 325 325 324 325 327 327 326 325
342 341 340 341 341 341 341 340 341 341 340 339 338 339 338 338 339 339 339 339 340 339 339 338 338 337 337 336 336 336 336 336 335 335 334 334 334 334 334 335 336 336 336 336 336 336 336 336 335 335 335 335 335 335 335 334 333 332 331 332 332 333 333 333 333 333 332 331 331 331 330 330 328 328 327 325 323 324 325 324 323 325 326 325 325
342 341 341 342 341 342 341 340 341 340 340 339 339 339 338 339 339 339 338 338 339 338 338 338 337 337 336 336 335 335 335 335 335 335 334 334 334 334 334 335 335 336 336 336 336 335 335 335 334 334 334 334 334 334 334 333 332 332 332 332 332 333 333 333 333 332 332 332 331 331 330 330 329 328 328 326 324 323 325 324 322 324 325 324 325
341 341 341 341 341 341 341 341 340 340 341 341 340 340 340 339 339 338 338 338 338 338 338 338 337 337 336 335 335 335 335 335 335 335 334 333 333 334 334 335 335 335 334 334 335 334 334 334 334 334 334 333 333 333 333 332 332 331 331 331 332 333 332 332 332 332 332 332 331 330 330 330 330 328 328 327 325 324 325 324 322 323 323 323 324
339 340 340 340 339 340 341 340 340 340 341 340 339 339 339 339 339 339 338 338 338 338 338 337 337 337 336 336 336 336 336 335 335 334 334 333 333 333 333 333 334 333 333 333 334 334 333 333 333 333 332 331 331 331 331 331 332 331 331 331 331 332 332 332 332 332 332 332 331 330 330 330 330 329 328 328 327 326 326 325 323 323 323 323 323
337 338 338 338 339 339 339 339 339 339 339 338 338 338 338 338 339 339 338 338 338 338 337 336 336 336 336 336 336 335 335 335 334 333 333 333 332 332 332 332 332 332 333 333 333 332 331 332 331 331 330 330 330 331 331 331 331 331 331 331 331 331 331 331 331 332 332 332 332 330 330 330 330 330 329 328 328 327 327 326 324 323 323 323 322
334 335 335 336 337 337 337 337 337 338 337 337 337 337 338 338 338 338 338 337 336 335 335 335 335 334 334 334 334 334 334 334 334 333 333 332 332 332 332 332 332 332 332 331 331 330 330 330 330 330 330 330 331 331 331 331 331 331 331 330 331 331 331 330 330 331 331 331 331 330 330 330 330 331 330 329 329 328 328 327 326 325 324 325 324
332 332 334 335 335 335 336 336 336 336 336 337 337 337 337 338 338 337 336 336 334 334 334 334 333 333 333 333 333 333 333 333 332 332 332 332 332 331 331 331 330 330 331 330 329 329 329 329 329 330 330 330 331 331 331 331 331 331 331 330 330 330 332 330 328 330 330 330 331 330 330 330 330 331 330 330 329 329 329 328 327 327 325 326 325
329 330 332 333 333 333 334 334 335 335 335 336 336 336 337 337 336 335 335 334 333 333 333 332 332 332 331 331 331 331 331 331 331 331 331 331 331 331 330 330 329 329 329 329 328 328 329 329 329 330 330 330 330 331 331 330 330 330 330 331 330 331 332 330 328 330 329 329 330 330 329 330 330 330 331 331 330 330 330 328 328 328 327 326 327
326 328 330 330 331 331 332 333 333 333 334 334 334 334 334 335 334 333 332 331 330 329 328 328 329 329 329 329 329 329 330 330 330 329 329 330 330 329 329 329 329 330 329 329 328 328 328 328 328 329 330 330 330 330 331 330 330 330 329 330 330 331 331 330 330 331 330 329 330 330 330 330 330 330 330 331 331 330 330 329 329 328 328 328 328
325 326 328 328 328 329 329 330 330 330 331 332 333 333 333 332 331 330 329 327 326 325 325 326 326 326 326 327 328 328 328 328 328 328 328 328 329 329 329 329 329 329 329 329 329 328 328 327 327 328 329 329 330 331 331 331 331 330 330 330 330 330 330 330 331 332 331 330 329 329 330 329 329 330 330 331 331 331 331 330 330 329 328 329 329
324 325 325 326 326 326 327 327 327 327 328 329 330 330 331 329 328 328 326 324 324 324 324 324 324 324 325 325 325 325 325 326 326 326 326 326 327 328 328 328 328 328 328 328 328 328 328 328 328 328 328 328 329 329 331 331 330 330 330 330 330 330 330 330 330 330 332 331 330 329 330 329 329 329 329 330 331 331 331 331 331 330 329 329 329
323 323 323 323 324 324 324 324 324 324 325 325 326 327 327 327 326 325 324 322 322 322 322 323 322 323 323 323 323 323 323 323 323 324 323 324 325 325 326 326 326 326 325 326 326 327 327 328 328 328 328 328 328 328 329 329 329 330 330 330 330 330 329 330 330 330 330 331 331 330 330 330 329 329 329 329 330 331 331 332 331 330 330 330 330
321 321 321 321 322 322 323 323 322 322 321 322 323 323 323 324 323 323 322 321 321 321 321 321 320 321 321 321 321 321 321 320 320 321 321 321 322 323 323 324 323 322 323 323 324 324 324 326 327 327 328 328 328 328 328 328 329 329 330 330 330 330 330 330 329 329 329 329 330 330 329 329 329 329 328 329 329 330 330 331 331 331 331 332 331
321 320 319 320 320 320 321 321 320 319 319 319 320 319 319 320 320 320 320 319 319 319 319 318 317 317 317 318 318 318 318 317 317 317 318 319 319 320 320 321 320 320 320 321 321 321 321 323 324 324 325 325 326 326 327 327 328 328 329 329 329 330 330 330 330 330 329 328 329 329 328 328 329 329 329 329 329 329 330 330 330 330 331 332 331
Wind_Speed
19 19 19 20 21 19 17 15 13 13 13 13 13 14 17 18 18 19 21 22 24 24 23 24 24 23 22 22 22 21 20 19 18 17 17 17 17 17 17 16 15 15 14 14 15 15 15 15 15 15 15 16 16 16 16 17 17 17 16 16 15 15 14 12 12 13 15 15 16 16 16 15 14 14 13 13 13 13 13 12 11 12 13 13 13
21 20 20 21 22 19 17 15 13 13 13 13 13 14 17 19 18 18 19 20 21 21 20 20 21 21 22 21 20 20 19 18 17 16 16 17 17 17 17 16 15 14 14 14 14 14 14 15 15 16 16 15 15 15 16 17 17 17 16 15 15 15 14 12 11 12 14 15 15 15 15 15 15 15 14 14 13 13 13 13 13 14 14 13 13
22 20 20 23 22 20 17 15 14 13 12 12 13 14 16 19 18 17 18 19 19 19 18 18 19 19 20 20 19 18 18 17 16 16 16 16 17 16 17 16 15 14 14 14 14 14 14 15 16 16 15 15 15 15 15 16 16 16 16 16 15 15 14 12 10 11 12 14 15 16 16 15 14 14 14 14 14 14 14 14 14 14 14 13 13
23 21 21 23 22 20 18 15 14 13 12 12 13 13 15 19 18 16 17 18 19 18 18 18 18 18 18 19 18 17 16 16 16 16 16 15 16 16 16 15 15 14 14 14 14 14 14 15 16 16 15 15 15 14 14 14 15 15 16 16 15 15 15 13 12 13 13 14 16 16 16 15 14 14 13 14 14 14 14 14 14 14 13 13 14
24 22 22 24 23 21 18 16 14 13 12 12 13 13 14 17 18 16 16 17 18 17 17 17 18 17 17 17 17 16 16 16 16 16 15 15 16 15 15 15 14 14 14 14 14 14 14 15 15 15 15 15 14 13 13 12 13 13 14 14 15 16 16 15 14 15 17 17 16 16 16 17 16 15 14 14 14 14 14 13 14 13 13 12 12
24 22 23 24 24 21 18 16 14 13 12 12 12 13 14 16 17 15 16 17 17 17 17 17 17 17 17 16 16 16 16 16 16 15 15 15 15 14 14 14 14 14 13 13 13 13 14 15 14 14 14 14 13 13 12 12 11 11 11 12 13 15 15 15 15 16 17 17 16 17 17 17 17 16 15 14 14 13 13 13 13 13 12 12 11
23 22 23 24 24 21 18 16 14 13 12 12 12 13 14 16 17 16 17 17 16 16 16 17 17 16 16 15 16 15 15 15 15 15 15 15 14 14 13 14 14 13 13 13 13 13 13 14 13 13 12 12 12 12 12 11 10 8 8 8 9 12 13 14 15 16 14 14 14 16 16 16 17 16 14 13 13 13 13 13 13 12 12 12 11
22 21 22 24 24 21 18 16 14 13 12 12 12 13 13 15 16 17 16 16 16 16 16 17 16 15 15 15 15 15 15 15 15 15 15 14 14 14 13 12 13 13 13 13 13 13 13 12 12 11 11 10 10 10 10 9 8 7 6 5 6 8 9 11 14 14 13 13 14 14 14 15 15 15 13 13 14 14 14 13 13 12 13 12 12
22 20 21 23 23 21 18 16 15 13 12 12 12 13 13 15 16 17 16 16 16 15 16 16 15 15 14 14 14 14 14 14 14 14 14 13 13 13 12 12 12 12 13 13 12 12 12 11 10 10 9 9 9 9 9 8 6 5 4 4 5 5 7 10 13 14 13 14 14 13 13 13 14 14 13 12 12 12 13 13 12 12 12 12 12
20 19 21 23 22 20 18 17 15 14 13 12 12 12 14 15 16 17 16 16 16 15 16 16 15 14 14 14 14 14 14 14 13 13 13 12 12 12 12 11 11 12 12 12 11 11 10 10 9 7 7 7 8 9 8 6 4 4 4 5 6 7 8 11 13 12 12 13 13 13 13 13 13 13 11 9 9 10 12 12 12 11 11 11 11
19 19 22 22 20 19 17 16 15 14 13 12 12 13 14 14 16 16 16 16 16 15 15 15 14 14 13 14 13 13 13 13 12 12 11 11 11 11 10 10 10 10 10 11 10 9 8 8 7 6 6 8 9 9 7 4 4 4 5 6 7 8 10 11 12 12 11 12 12 12 12 12 12 10 7 7 9 11 11 10 10 10 9 9 9
18 18 20 20 18 17 16 15 14 14 12 12 11 13 14 14 15 15 15 16 15 14 14 14 14 13 13 13 13 13 13 12 11 11 10 10 10 9 9 8 8 8 9 9 8 8 7 6 5 5 6 8 10 9 6 4 5 5 6 8 9 10 10 10 10 11 11 11 11 10 11 11 11 9 6 8 9 10 10 9 9 9 8 8 9
17 17 19 19 16 16 15 14 13 13 12 12 12 13 13 14 14 14 16 16 14 14 14 13 13 12 12 12 12 12 11 10 10 10 9 8 8 8 7 6 6 6 6 6 6 6 6 5 5 5 7 9 9 8 6 5 6 7 8 9 10 10 9 8 9 10 11 11 10 8 8 9 9 8 7 9 9 9 9 9 8 9 8 8 7
18 19 19 17 16 15 14 14 13 12 12 12 12 12 13 13 13 13 15 16 14 13 13 13 12 12 11 11 11 10 9 9 9 8 7 7 7 7 6 5 5 5 5 6 6 5 4 4 4 5 7 8 8 8 7 6 6 7 9 10 10 9 8 8 8 9 9 9 9 8 7 7 8 7 7 9 8 8 9 8 7 8 8 7 7
20 20 19 17 16 14 13 13 13 12 12 11 12 12 12 12 12 12 13 15 15 13 13 12 11 11 10 10 10 8 8 8 8 7 7 6 6 7 6 5 6 6 6 7 6 5 3 4 4 5 7 8 8 7 7 6 6 7 9 9 8 7 6 7 7 7 8 8 9 9 8 8 7 6 6 7 7 7 8 8 7 7 6 6 7
20 21 20 18 17 14 13 12 11 12 11 11 11 11 11 11 12 12 12 15 15 13 13 11 11 11 10 10 9 8 8 8 7 7 6 6 6 7 6 6 6 6 7 7 7 5 4 4 5 6 7 7 7 6 6 6 5 6 7 8 7 6 6 6 6 6 6 8 8 9 9 8 7 6 6 6 6 7 7 8 7 6 5 6 7
19 20 20 19 17 15 14 12 11 11 11 11 11 11 11 11 11 11 13 15 14 13 12 11 10 11 10 9 8 8 7 7 6 5 5 6 6 6 6 5 5 5 6 7 7 6 4 5 6 7 7 7 7 5 5 5 4 4 5 6 6 6 5 6 6 6 6 7 8 9 10 9 7 6 5 6 6 7 7 7 6 5 5 5 5
19 20 21 20 18 16 15 13 12 12 11 11 10 11 11 11 11 11 12 14 13 12 12 11 10 10 9 8 7 6 5 5 5 4 4 5 6 6 5 5 5 4 5 6 7 7 5 4 6 7 7 7 7 5 4 5 4 4 4 5 5 5 5 5 6 6 6 6 7 8 8 8 8 6 5 6 6 6 5 5 5 4 4 5 4
20 20 20 20 18 17 16 14 13 13 12 12 11 12 12 11 11 11 11 13 13 12 11 10 10 9 8 7 6 5 4 3 2 3 4 5 6 6 5 5 5 5 5 6 7 7 5 4 6 8 8 8 7 5 5 7 6 5 4 5 4 4 4 4 5 5 5 5 5 6 6 6 6 7 7 5 5 5 4 4 5 4 3 3 3
20 20 19 19 18 16 15 13 13 12 13 13 12 12 12 11 11 10 10 12 11 10 11 10 10 9 7 7 6 5 3 2 1 2 3 4 5 5 5 5 5 6 6 6 6 7 6 3 5 8 9 8 7 6 7 8 7 6 4 4 4 3 3 3 4 4 4 4 3 4 4 6 7 7 6 4 4 4 4 4 3 2 2 1 1
19 19 19 18 17 15 14 13 12 12 13 13 12 12 11 11 11 10 10 11 8 8 10 10 9 9 7 6 5 4 2 1 0 1 2 3 4 4 4 4 4 5 6 6 6 7 7 3 4 8 9 8 7 7 7 8 7 6 4 3 3 2 1 2 3 3 3 3 2 3 3 5 7 7 5 5 4 4 4 3 2 1 1 1 2
19 18 17 17 16 15 13 12 12 12 13 13 13 12 11 11 11 10 10 9 7 7 9 9 9 8 7 5 4 2 1 1 1 1 2 3 3 3 3 3 2 3 4 5 5 6 7 4 3 8 9 8 7 6 7 7 6 5 3 2 2 1 0 1 2 3 3 2 1 2 3 4 7 7 5 5 5 4 4 3 2 2 1 2 4
19 18 17 17 15 15 13 12 12 11 13 13 13 12 10 11 11 11 10 8 7 7 8 8 8 7 6 5 3 2 1 2 2 3 2 2 2 2 2 3 2 2 3 4 5 5 6 4 3 9 10 8 6 6 6 6 6 5 3 1 1 2 2 2 2 3 2 2 2 1 3 5 6 7 6 6 5 4 4 4 3 3 2 2 4
19 18 18 16 14 14 13 12 11 11 13 13 13 11 10 11 12 11 10 9 7 7 7 6 7 6 5 5 3 0 2 3 4 4 4 4 3 2 2 3 3 3 3 3 4 4 5 5 2 9 10 9 6 5 5 6 6 6 5 2 1 2 3 3 3 3 2 2 1 1 3 4 5 6 6 6 6 4 4 4 3 3 3 2 3
19 17 16 15 14 13 12 11 10 11 12 13 13 11 10 11 11 10 9 8 7 6 5 5 5 5 4 4 4 2 2 3 4 4 4 4 4 4 3 4 4 4 3 3 3 3 4 4 2 9 11 9 6 4 4 5 5 5 5 3 2 3 5 5 5 5 4 3 2 1 3 4 5 6 6 7 6 5 4 3 4 4 4 4 3
17 16 15 14 13 12 11 11 10 10 11 12 12 10 9 10 10 9 8 7 6 6 5 4 4 4 3 4 3 2 1 3 5 5 5 6 5 5 5 5 5 5 5 4 3 3 3 3 1 8 11 10 7 4 3 2 2 4 5 5 6 6 7 8 8 8 6 5 4 2 3 4 5 6 6 7 6 6 6 4 4 5 5 5 4
16 15 15 14 13 11 10 10 9 9 9 9 10 9 8 8 8 7 7 6 5 5 4 3 2 2 2 1 1 1 1 3 5 6 7 7 7 7 7 7 6 6 6 6 4 4 2 2 1 7 10 11 9 5 3 2 4 6 7 9 10 10 10 10 10 10 9 8 6 5 4 4 6 6 6 7 7 7 7 6 6 5 5 5 4
16 15 14 13 12 11 9 8 9 8 8 8 8 7 7 7 7 6 6 5 4 4 3 2 1 1 1 1 2 3 4 5 6 7 8 8 8 8 8 9 8 8 7 7 7 5 4 2 1 5 9 10 10 8 5 6 8 10 11 11 12 12 12 12 12 12 12 10 9 7 5 5 6 7 6 7 9 8 7 7 6 5 5 6 5
15 14 13 12 11 10 8 8 8 7 7 7 7 6 5 6 6 6 5 4 4 3 2 1 2 2 2 3 4 5 6 8 9 10 10 9 9 9 8 9 10 9 9 8 7 7 6 5 3 4 7 9 10 9 8 9 11 12 13 13 13 13 13 12 12 13 13 12 11 9 7 7 7 8 7 8 9 9 8 7 7 5 6 6 6
15 14 12 12 11 9 8 7 7 6 5 5 5 5 5 5 4 4 3 3 2 2 1 1 2 3 4 5 6 8 9 10 11 12 12 12 11 10 10 10 10 10 11 10 8 8 8 8 7 6 6 8 9 10 10 12 13 13 14 14 14 13 13 12 12 13 13 14 13 11 10 9 8 9 9 9 10 10 9 8 8 7 7 6 7
15 14 12 12 11 9 8 6 6 5 4 4 4 4 3 3 2 2 2 1 1 1 2 3 4 5 6 7 8 9 11 12 13 14 14 14 12 12 12 11 11 10 12 12 10 9 9 9 10 10 9 9 10 11 12 14 14 15 16 15 14 14 13 12 11 13 14 15 15 14 12 11 10 10 10 10 11 11 11 9 8 8 7 7 7
16 15 13 12 11 9 8 6 5 5 4 3 2 2 3 3 3 3 2 3 3 3 4 5 5 6 7 8 9 10 11 12 12 13 13 13 13 13 12 12 12 10 11 12 12 11 10 10 10 11 12 12 12 13 14 15 16 17 17 17 16 16 15 13 11 13 15 16 16 16 14 13 12 11 11 11 11 12 12 10 9 9 9 8 8
16 15 13 12 10 9 8 7 6 4 3 2 1 1 2 4 5 5 5 5 5 5 5 6 7 7 8 8 8 10 11 12 12 12 12 13 13 13 13 13 12 11 11 11 11 12 12 12 11 11 12 13 14 14 15 16 17 18 18 18 18 18 17 15 14 13 15 17 18 17 16 15 14 13 14 14 13 13 12 12 10 9 10 10 9
16 15 13 11 9 8 8 7 6 5 3 2 1 1 3 4 5 6 6 6 6 6 6 7 7 7 7 7 8 10 11 11 12 12 12 12 12 12 12 12 12 12 12 11 10 10 12 13 13 13 14 14 15 16 17 17 17 18 19 19 19 18 17 16 16 16 16 17 18 19 18 17 16 15 16 17 16 14 13 13 11 10 10 11 11
16 15 13 11 9 7 5 5 4 4 3 1 1 1 3 4 4 5 6 6 6 6 6 7 7 7 7 7 9 10 9 10 11 11 11 11 11 11 11 11 12 12 12 11 10 10 10 12 13 14 16 16 17 18 18 19 18 19 20 19 18 18 18 18 17 17 17 18 20 20 19 19 19 17 17 19 20 17 14 13 13 12 11 12 13
15 15 13 10 7 5 4 3 3 2 1 1 1 1 3 3 3 4 4 4 5 5 6 6 6 7 8 8 8 8 7 9 11 11 11 10 10 10 10 10 11 12 12 12 11 11 12 12 12 13 15 16 17 18 19 18 17 19 21 20 18 18 19 19 19 18 17 18 20 21 20 20 21 20 18 20 24 21 16 14 15 14 12 13 15
15 14 12 10 7 5 4 4 3 2 2 1 0 0 1 1 1 2 2 3 4 4 5 5 6 8 9 8 8 8 7 9 10 10 9 8 8 9 9 9 10 11 12 12 12 12 13 14 13 12 14 15 17 18 18 17 17 19 22 21 19 19 20 20 21 20 19 19 20 21 22 21 22 22 20 19 23 25 19 15 16 16 15 17 18
15 14 13 11 10 8 6 4 3 3 3 3 3 2 2 2 0 2 3 4 3 3 4 6 7 9 10 10 10 10 9 9 10 9 7 6 6 6 7 7 8 9 10 11 12 13 13 13 13 13 14 15 16 17 17 17 17 18 21 21 20 20 21 21 21 21 21 21 21 21 22 22 24 25 23 19 20 25 23 18 17 18 18 19 19
15 14 14 12 11 9 7 5 3 4 5 5 5 4 3 2 2 3 4 4 3 4 5 7 8 9 11 11 11 11 10 10 10 10 9 8 7 7 6 7 7 8 9 11 12 12 12 13 14 14 15 15 16 17 17 17 16 17 19 20 21 21 22 21 21 22 23 24 23 23 23 24 25 26 26 22 21 25 25 20 19 20 20 20 19
13 13 13 11 9 8 7 6 6 6 6 6 5 4 3 2 3 4 4 4 3 5 7 8 9 10 10 11 11 11 12 11 12 12 12 10 9 9 9 9 9 9 10 10 11 12 13 13 14 14 15 16 17 16 16 16 17 18 19 20 21 22 23 22 22 24 25 27 26 25 25 25 27 28 28 26 24 25 24 22 21 21 21 20 19
15 14 14 13 11 10 10 10 10 9 8 7 6 5 4 4 4 5 6 7 6 7 8 10 11 11 10 11 11 11 11 12 13 13 12 10 8 8 9 9 9 8 8 9 10 12 12 12 13 14 15 16 16 15 15 15 14 14 15 16 19 21 23 24 24 25 27 28 28 27 27 26 27 28 29 28 27 26 24 23 22 22 22 20 20
19 18 18 18 16 14 14 14 13 11 11 9 8 7 5 5 5 6 7 8 9 10 11 12 12 12 12 12 11 11 11 11 12 13 12 11 10 9 8 8 8 8 7 8 9 11 11 11 11 14 14 14 14 14 14 13 9 9 11 11 13 17 19 21 24 27 28 29 29 29 29 28 28 28 29 29 28 27 26 25 24 24 23 22 21
22 20 20 20 18 17 16 15 14 12 11 9 7 7 6 5 5 6 7 9 12 12 12 12 13 15 15 15 14 13 12 12 12 12 11 11 10 10 9 9 9 9 9 10 11 12 13 12 11 12 13 14 14 14 14 11 10 11 10 5 4 6 8 12 19 25 27 28 29 30 30 30 29 29 29 30 30 29 28 27 26 26 25 23 22
21 20 20 20 18 17 16 14 14 13 11 9 8 8 6 6 6 7 8 9 11 10 10 11 13 15 16 16 16 15 14 14 13 12 12 11 11 10 11 10 11 11 12 13 14 15 15 14 12 11 11 13 13 13 13 12 11 11 7 2 1 3 4 4 9 16 20 24 28 30 31 31 30 29 30 31 32 32 31 30 28 27 27 25 23
21 20 20 20 19 18 16 15 15 14 13 11 10 9 8 8 8 9 9 8 9 9 10 13 14 14 15 16 16 15 14 14 14 13 13 12 12 12 12 12 12 12 13 14 14 15 15 15 14 13 12 12 14 14 14 13 12 11 9 6 3 3 3 3 5 9 11 16 23 27 29 31 31 30 31 33 33 33 32 32 31 29 29 27 24
20 20 20 20 20 18 17 16 15 15 14 12 10 8 8 8 7 8 10 11 13 14 14 15 15 14 14 14 14 13 13 13 13 13 13 12 12 12 12 12 13 12 13 13 14 14 15 15 14 14 13 12 14 15 15 16 15 13 13 12 11 10 9 8 6 4 6 12 17 21 25 29 30 29 30 33 33 34 34 32 32 32 31 29 26
18 19 19 19 19 18 17 16 16 15 15 13 11 9 9 10 10 11 14 15 16 15 14 14 14 13 13 12 12 12 12 12 12 13 12 12 12 12 12 12 12 12 12 12 13 13 14 15 14 13 13 14 15 15 16 19 16 13 13 15 17 19 18 15 9 5 6 8 12 16 20 24 27 26 29 32 32 33 34 33 32 33 32 30 28
17 18 19 18 17 17 16 16 16 16 15 13 12 11 11 12 13 14 15 15 15 14 12 12 12 11 11 12 11 11 11 11 11 12 13 13 13 13 13 12 12 12 13 12 12 12 13 14 15 15 14 14 15 15 18 19 15 13 15 15 16 18 20 21 20 15 8 5 8 11 16 21 24 25 28 31 32 32 33 33 33 33 32 31 30
18 18 18 17 16 16 16 16 16 16 15 13 13 13 12 11 12 13 13 13 13 12 11 10 11 11 11 11 11 11 11 11 11 11 12 13 13 13 14 14 13 13 14 14 13 13 13 13 14 15 15 15 14 14 16 17 16 18 18 16 15 16 19 20 23 21 13 9 8 7 10 14 17 23 27 28 30 31 32 33 33 32 32 31 32
19 18 18 17 17 16 16 17 18 17 16 14 14 14 13 11 11 11 11 11 10 10 9 10 11 11 11 11 11 11 11 11 11 11 12 12 12 13 14 14 13 13 14 15 15 15 15 15 14 14 14 15 15 14 15 16 17 19 19 17 16 18 17 13 13 16 14 12 10 8 10 10 10 16 24 26 28 30 31 31 31 32 32 32 32
19 18 18 18 18 17 18 20 19 17 17 16 16 16 15 14 13 12 11 11 11 10 11 13 13 13 13 12 12 11 11 12 12 12 13 13 12 12 13 12 12 14 15 16 17 17 17 16 15 15 14 15 15 15 15 16 16 17 18 18 19 20 18 13 12 15 13 11 9 8 10 13 12 14 18 21 25 27 29 30 31 33 34 34 34
Wind_Direction
155 157 162 163 158 158 159 155 146 136 124 113 117 127 129 125 121 119 118 118 118 118 119 121 122 123 124 125 123 120 117 116 114 112 110 108 107 106 104 102 101 99 99 98 97 98 98 99 99 99 98 100 100 99 99 98 96 92 89 87 86 83 79 82 88 90 88 86 85 87 88 89 93 94 95 92 91 92 92 95 91 80 74 70 68
157 160 163 162 160 160 160 155 148 138 125 117 118 127 131 130 124 118 118 117 116 116 117 118 119 121 121 121 120 118 117 115 112 111 109 109 109 108 106 103 102 100 99 98 98 98 98 100 101 100 99 100 99 100 100 98 97 92 88 88 86 80 76 79 87 92 92 90 89 91 91 93 95 96 96 94 95 93 90 89 85 81 80 77 77
155 163 164 160 160 161 162 157 149 140 128 120 118 126 133 135 127 118 118 116 116 115 117 117 116 118 119 120 119 117 115 114 111 109 108 109 110 108 106 104 102 101 100 100 99 99 99 101 103 101 101 102 102 102 103 102 100 92 86 88 83 75 75 78 88 93 91 94 97 98 98 99 99 97 95 93 93 90 87 86 87 86 84 82 82
158 163 163 160 160 162 163 158 150 143 132 124 120 123 133 139 131 121 117 116 115 113 116 116 115 116 117 119 117 116 115 113 110 109 109 108 109 107 106 106 105 104 103 103 103 104 105 106 105 104 105 106 105 105 106 108 106 95 87 84 78 76 76 78 89 93 95 104 108 106 102 101 100 98 97 95 93 94 94 92 90 87 86 84 83
160 162 161 158 159 162 164 159 151 146 136 126 121 120 133 140 133 124 119 117 115 112 114 113 114 114 113 115 114 114 113 112 110 110 109 108 109 107 107 107 107 106 105 106 107 110 112 112 108 107 108 107 106 104 106 109 110 99 87 79 77 78 76 81 92 96 99 105 107 105 104 103 102 99 99 101 99 98 98 94 92 89 88 86 87
161 160 159 158 160 162 164 160 153 149 139 127 121 119 130 138 132 123 120 118 113 111 112 112 112 112 111 111 111 112 112 111 110 110 109 109 109 107 109 109 109 108 107 106 108 113 116 115 111 111 112 111 108 103 101 102 107 103 86 75 77 79 77 84 97 102 102 101 101 101 102 103 102 101 101 102 100 97 97 93 91 89 86 86 87
159 159 160 160 159 161 163 160 155 152 141 129 122 120 126 135 131 122 122 120 113 112 113 112 111 111 111 111 111 112 112 112 111 111 110 110 109 108 109 109 109 109 108 106 108 113 117 117 113 114 116 115 112 107 100 95 97 96 86 77 81 82 79 88 103 106 105 104 103 102 103 103 101 103 104 103 103 101 97 90 88 87 84 83 81
157 160 161 160 158 159 162 158 156 154 142 130 123 121 123 128 127 124 124 120 114 115 116 114 112 112 113 113 113 113 113 112 111 111 110 111 111 110 110 110 110 111 111 110 112 114 119 120 117 115 117 119 117 110 100 93 91 89 86 81 88 92 81 89 109 112 107 108 108 110 111 111 110 110 108 104 104 100 96 93 92 88 85 85 81
156 160 160 159 157 158 160 158 158 153 141 131 124 121 120 123 125 127 124 117 113 116 116 114 115 117 116 115 114 114 113 112 111 110 110 111 111 111 111 111 111 111 112 113 115 118 123 124 122 118 119 124 116 103 93 91 92 84 75 68 84 113 105 98 112 115 108 112 115 116 116 117 114 106 103 103 100 97 101 100 96 92 88 87 86
156 158 160 159 156 159 160 158 156 149 140 130 126 122 119 121 126 127 122 116 114 118 117 116 118 119 119 117 116 116 115 113 111 111 113 112 111 111 110 111 111 111 111 111 114 121 128 127 125 120 121 121 106 95 90 88 77 62 58 65 93 129 127 109 114 118 114 116 115 109 106 108 105 102 105 103 93 94 100 96 90 89 86 87 88
156 157 160 157 154 158 157 154 151 145 139 131 126 124 120 120 127 126 122 117 116 121 120 119 120 121 123 121 120 120 118 114 112 114 115 115 114 111 108 110 111 112 111 109 110 118 127 128 125 121 122 114 102 94 86 72 53 60 68 75 104 130 128 116 119 123 120 115 108 105 106 106 103 106 109 98 89 94 100 95 91 88 84 87 85
153 156 156 152 151 154 152 149 146 143 137 131 126 124 122 121 124 123 120 118 118 124 125 122 122 125 127 124 124 123 122 118 116 115 113 112 110 108 108 109 110 110 112 108 106 115 121 122 120 121 120 111 103 93 76 53 55 81 90 89 109 125 125 120 123 129 126 115 106 107 111 109 105 103 96 89 94 100 99 94 94 89 87 88 84
149 152 151 148 150 152 150 144 141 139 134 128 125 123 124 126 124 121 124 124 123 128 131 127 126 128 128 125 126 126 126 122 116 113 110 108 103 103 101 99 107 112 110 102 103 113 118 119 123 124 117 111 106 91 70 51 66 97 103 104 116 122 122 119 126 133 130 121 114 116 115 106 102 99 91 91 99 105 99 95 94 86 86 90 86
147 149 148 148 148 151 150 143 141 137 134 128 127 129 129 133 130 127 132 133 129 132 136 131 131 131 130 128 126 127 125 119 111 106 102 97 94 92 89 81 83 94 94 86 91 99 110 129 139 135 121 114 109 92 75 61 74 108 116 117 123 121 119 118 128 137 134 128 122 129 129 110 104 103 100 101 105 107 103 100 96 89 90 97 95
147 147 147 148 145 150 153 147 146 142 139 134 135 136 136 139 137 133 135 139 137 137 139 135 134 133 132 129 126 130 123 112 102 94 87 77 74 74 73 63 55 64 71 69 70 75 96 136 152 143 129 120 114 98 83 74 82 114 126 127 127 120 112 111 125 138 138 132 126 133 135 121 112 109 107 109 112 110 107 106 100 94 92 95 94
145 146 147 147 147 150 152 150 147 143 141 137 138 139 141 143 139 134 131 139 141 138 141 141 138 136 136 133 131 132 121 110 97 87 78 63 58 59 58 51 47 54 60 58 55 62 88 127 151 146 135 129 117 100 86 81 84 111 131 133 130 122 106 96 111 129 136 136 134 135 131 122 114 112 111 111 116 115 114 113 105 98 94 96 96
146 146 145 147 151 152 153 151 146 142 142 140 142 145 147 145 141 135 131 140 143 138 144 147 143 141 143 142 137 127 112 104 94 79 64 52 46 44 48 45 44 50 50 48 44 52 80 120 149 151 142 135 115 95 81 81 83 102 132 141 135 125 105 87 94 109 126 138 144 141 133 132 132 124 116 112 116 116 116 116 111 105 97 100 100
147 146 146 150 154 157 156 152 151 149 147 145 147 150 146 146 147 140 137 145 146 143 148 152 149 144 149 149 140 126 108 95 86 67 49 43 38 32 33 35 37 40 37 37 34 40 63 116 148 154 146 134 112 90 72 74 84 102 130 148 145 127 103 86 85 95 115 134 148 148 147 151 150 138 128 122 119 119 119 115 116 115 102 106 103
148 148 151 154 158 161 159 157 161 156 152 150 149 151 150 148 146 142 144 147 146 150 153 156 157 151 152 153 146 137 119 101 85 54 40 34 33 30 24 21 28 34 27 27 26 28 44 106 148 156 149 136 117 93 73 68 79 105 128 147 152 131 103 85 77 86 105 126 143 153 158 148 138 136 137 135 130 133 127 114 118 117 109 117 102
149 152 154 158 162 163 161 163 163 158 156 152 149 149 150 146 142 146 149 146 149 160 160 159 162 157 154 155 154 152 140 125 105 36 29 18 20 26 28 22 18 27 28 25 21 20 30 78 151 161 154 142 126 99 76 66 73 97 120 142 156 140 105 78 69 74 88 115 139 151 150 127 124 137 140 132 131 138 134 127 133 127 122 117 59
150 155 157 160 164 165 166 165 159 157 155 147 142 141 145 147 146 150 147 148 152 161 166 164 165 163 160 160 156 163 161 128 68 13 1 348 7 17 22 30 19 21 27 25 19 16 21 46 153 165 158 147 133 109 85 70 71 88 112 143 160 154 106 61 51 57 70 86 124 152 152 131 133 146 147 142 146 153 151 149 148 130 133 98 95
151 154 158 164 166 168 168 162 156 155 148 139 137 137 146 150 149 149 144 149 150 152 166 171 175 174 174 178 180 196 226 312 321 348 320 322 9 24 5 19 23 12 20 21 16 15 16 27 156 169 161 152 138 117 96 82 78 87 110 146 165 179 315 20 22 38 54 61 98 157 158 146 151 161 164 161 168 179 182 172 154 152 158 127 134
151 155 160 168 170 170 168 160 156 151 144 139 138 139 146 150 149 148 146 149 149 151 163 173 182 180 180 187 198 230 328 26 47 43 16 356 27 39 359 354 352 340 358 9 8 14 16 20 159 171 163 158 148 125 106 95 86 82 96 130 198 237 296 318 341 10 26 44 77 156 160 161 168 172 176 175 176 191 188 172 176 200 197 150 154
154 159 164 170 170 170 167 158 151 146 144 143 144 145 148 152 150 149 151 153 153 156 162 170 173 172 173 172 180 159 31 49 56 39 30 40 41 34 351 333 327 312 319 341 354 5 14 19 153 173 167 164 158 134 114 102 89 73 76 85 280 276 289 296 308 328 341 5 38 155 168 176 178 181 189 185 182 190 179 167 186 206 186 165 164
158 158 163 167 168 171 166 156 149 147 149 151 151 152 154 156 153 151 155 158 162 166 168 162 152 155 154 150 151 105 49 23 9 1 6 20 22 16 356 334 310 290 291 302 328 348 7 18 140 175 172 166 166 154 126 106 85 55 45 41 357 313 296 291 292 298 304 311 304 233 186 189 192 197 195 190 193 190 186 185 184 192 191 178 167
158 156 160 164 170 172 165 157 153 151 153 158 155 152 159 161 157 157 161 165 171 179 180 161 146 147 145 149 153 135 41 356 345 344 347 342 342 345 345 339 316 289 277 276 293 314 345 16 127 177 177 171 173 181 158 119 35 8 0 351 336 318 304 292 286 285 286 284 276 260 211 198 205 212 200 198 202 189 188 204 195 201 208 188 179
159 160 163 165 170 172 169 161 157 157 157 162 158 155 161 163 159 163 171 174 180 189 188 169 158 156 156 177 185 223 311 330 332 336 336 332 332 327 327 334 333 317 291 272 270 283 299 349 151 180 183 180 183 197 215 271 315 327 328 327 321 311 300 289 283 280 276 274 266 258 231 212 216 220 215 203 199 197 191 201 211 209 209 195 186
161 163 165 166 169 169 167 160 158 159 162 168 165 160 161 162 163 166 175 181 193 202 204 203 209 211 226 264 298 309 312 315 319 325 326 327 326 320 318 321 330 335 318 289 270 270 279 288 222 192 193 192 195 206 234 279 301 311 316 317 316 310 299 285 277 272 269 266 261 257 238 223 224 223 223 206 201 210 199 196 210 208 209 207 193
156 158 161 162 165 161 156 155 153 152 162 171 170 170 169 172 171 169 179 187 195 210 227 255 269 269 277 288 304 312 312 314 316 318 320 321 320 316 315 313 317 325 329 319 291 276 277 280 271 228 212 211 217 225 247 275 292 304 312 313 313 314 305 286 271 266 264 260 257 255 242 229 228 224 224 212 207 214 209 201 206 213 216 206 197
149 152 156 158 160 157 155 154 144 140 151 161 167 179 183 186 179 173 187 191 196 224 247 290 303 296 300 304 310 315 315 316 316 316 315 312 310 309 309 309 309 313 321 327 319 298 289 285 284 277 257 245 247 257 271 280 287 297 307 310 311 315 314 295 272 261 258 256 254 252 242 233 229 228 223 215 212 215 214 209 206 218 215 202 204
145 145 152 158 160 159 158 152 144 142 143 142 155 182 201 217 216 205 221 258 277 288 304 312 314 314 316 314 317 318 318 318 317 317 316 312 308 303 306 308 306 309 314 316 320 315 307 297 291 287 281 273 268 274 287 292 292 298 305 308 307 309 311 303 278 258 252 252 251 250 243 236 232 231 225 219 219 217 216 213 207 217 216 207 211
146 144 152 158 159 161 160 155 157 161 156 139 143 190 233 253 262 275 293 301 304 316 325 327 324 321 318 318 319 319 319 319 318 318 317 314 310 304 304 306 307 311 311 308 307 307 307 305 298 291 285 281 276 276 286 294 298 303 306 303 299 300 302 300 284 259 248 245 246 247 243 238 235 232 229 227 227 221 218 218 209 209 215 213 214
147 145 149 155 160 165 165 165 170 178 182 177 188 256 280 281 285 295 302 297 300 310 322 330 328 326 323 323 323 323 323 319 317 316 314 314 313 310 308 309 312 311 307 303 300 299 299 299 298 295 289 285 282 280 284 290 296 301 301 298 295 296 296 295 290 274 255 245 243 243 241 238 237 235 232 232 234 229 222 220 211 204 210 210 214
153 152 154 158 167 175 174 169 162 171 191 204 236 308 310 300 301 302 302 300 303 309 321 330 332 336 333 333 333 331 330 328 324 317 310 311 310 310 309 310 314 311 308 310 308 302 297 295 295 293 292 290 288 288 289 291 295 296 294 293 292 290 288 287 287 282 268 255 246 241 239 237 237 237 236 235 236 234 231 224 211 208 212 209 212
161 164 167 168 173 181 176 163 153 167 188 197 247 315 310 310 313 308 304 302 304 312 325 333 332 332 331 339 340 334 337 342 341 331 319 315 313 312 310 309 311 309 311 316 317 314 307 300 297 295 293 292 291 291 293 295 296 294 291 290 288 285 284 283 282 278 271 261 250 242 239 237 237 237 237 240 240 237 235 229 214 209 210 209 212
162 164 168 168 170 175 166 155 149 157 143 60 315 296 300 301 303 302 300 296 304 318 324 328 328 328 335 342 339 338 346 353 353 347 338 329 325 325 323 319 315 313 314 314 315 317 316 309 304 300 296 295 294 293 293 297 300 300 295 289 283 281 281 282 282 279 271 261 251 244 240 238 239 237 234 239 244 241 234 229 222 212 207 211 218
153 152 155 160 161 159 147 130 114 89 66 63 102 215 227 238 275 298 315 313 319 328 323 328 335 335 342 345 346 353 357 355 355 355 354 346 335 331 329 327 321 319 317 313 314 316 316 313 311 310 304 302 301 297 297 300 299 296 291 286 280 277 277 279 281 279 270 261 254 245 240 240 240 237 232 231 240 243 237 228 226 218 212 218 225
148 151 154 157 154 146 139 130 121 106 96 90 88 100 120 126 83 326 334 337 334 339 339 345 348 345 350 357 1 6 6 2 2 8 16 11 355 340 332 330 326 324 322 318 319 318 316 317 318 319 315 310 305 303 303 300 294 287 283 282 278 274 274 276 276 274 267 261 256 246 241 242 242 238 234 230 232 238 237 230 226 222 221 225 230
141 146 147 147 145 142 143 138 135 131 113 97 93 97 96 74 349 327 326 332 329 344 358 1 4 2 5 11 11 12 10 9 13 19 28 29 23 12 2 358 349 343 339 334 333 330 327 326 324 325 323 316 311 309 304 298 294 286 278 275 274 273 273 273 270 269 265 261 256 250 245 243 243 239 235 233 230 232 235 232 228 226 228 230 233
126 127 130 138 137 137 142 125 116 125 120 110 112 103 79 48 355 347 353 359 0 12 22 24 28 30 32 30 26 20 16 16 18 22 29 30 21 12 5 1 353 346 342 340 338 335 330 322 319 321 319 315 312 311 309 307 302 294 285 279 277 274 271 268 265 263 262 260 256 252 247 242 242 239 234 233 231 230 231 230 229 228 231 233 232
114 115 117 119 118 122 126 115 113 123 121 114 109 96 78 64 48 45 43 38 37 38 39 39 41 45 47 44 37 30 26 28 31 35 40 38 26 17 8 0 353 345 338 333 329 328 325 318 316 318 317 314 313 316 319 315 307 300 298 296 290 282 273 265 261 261 259 259 256 252 247 241 241 238 233 231 231 230 230 228 229 229 232 234 231
106 110 109 110 114 117 118 114 114 120 115 110 108 98 87 76 68 64 60 56 53 49 46 43 46 50 49 48 43 37 35 38 44 46 46 42 36 30 20 9 1 352 342 336 334 334 333 331 330 327 326 321 317 324 325 313 297 293 301 304 298 289 277 265 261 261 258 256 255 251 247 242 241 238 232 231 231 231 230 228 228 229 232 234 232
103 106 108 111 114 115 115 114 114 115 111 107 102 90 83 85 81 73 72 73 68 61 56 54 54 54 52 49 46 43 42 45 48 48 45 42 38 35 28 21 13 5 358 352 351 350 346 343 336 331 330 323 316 321 325 312 288 286 291 291 295 297 284 265 259 260 259 255 253 251 247 244 241 237 232 232 232 232 231 229 227 229 231 233 234
100 101 105 107 107 106 107 107 105 103 100 92 84 78 78 87 90 88 88 88 84 74 61 56 54 50 46 45 44 42 42 43 44 43 41 40 38 35 30 25 19 12 4 360 357 355 352 347 342 339 336 325 317 316 318 311 295 286 282 264 269 282 281 268 264 270 267 258 254 251 247 244 242 237 233 233 233 233 232 229 227 228 230 232 234
94 94 99 100 98 96 95 95 93 91 90 86 81 79 78 87 91 91 92 88 78 61 47 46 46 43 42 44 43 37 35 39 39 37 36 35 34 30 24 19 16 9 4 1 357 354 351 349 347 346 342 331 320 311 306 306 299 286 275 271 286 280 281 322 302 287 274 261 257 254 249 245 242 236 234 235 235 236 235 231 229 229 229 230 232
89 92 96 97 95 94 91 90 87 86 87 85 81 74 71 74 69 66 71 70 63 56 51 50 48 48 49 49 44 36 36 38 38 35 32 31 31 26 18 13 10 9 9 5 359 355 348 343 344 341 339 335 322 306 300 306 305 293 280 270 266 262 269 293 303 296 282 270 261 256 252 247 242 236 235 236 236 236 237 233 230 230 230 229 231
90 95 97 96 95 94 91 89 87 84 84 83 79 71 70 71 68 70 71 69 67 63 59 56 53 53 53 50 42 37 38 37 37 37 34 33 32 26 18 12 10 13 13 7 2 359 349 343 343 338 333 332 322 307 303 306 304 298 291 278 267 262 264 272 275 282 295 276 255 253 255 250 243 236 235 238 236 235 237 235 231 231 231 230 230
93 96 97 95 94 93 91 89 87 83 81 81 80 77 76 75 72 72 68 65 65 62 54 50 48 46 45 44 40 37 36 33 33 34 34 34 29 24 20 13 11 12 11 8 5 2 354 346 344 340 334 331 326 316 309 306 300 298 298 289 280 273 268 268 266 265 273 282 267 260 258 254 247 239 235 237 237 236 237 237 233 229 230 231 231
95 95 97 98 97 95 93 90 85 82 80 80 81 80 79 74 67 63 63 63 60 55 46 38 35 32 30 31 31 30 29 27 26 26 27 28 23 17 14 9 8 10 9 8 4 2 360 352 346 342 337 334 331 325 318 312 307 304 297 288 288 286 277 271 266 261 255 261 271 264 256 252 247 243 239 235 235 236 236 238 237 231 228 231 232
97 97 97 98 99 96 94 89 84 83 82 82 82 80 77 72 65 59 57 56 53 48 40 33 29 24 20 19 19 19 19 18 19 19 18 19 16 9 5 3 3 5 4 1 357 357 356 351 346 343 342 341 338 335 330 321 316 311 302 293 293 290 281 271 264 260 253 251 257 263 258 244 235 244 243 236 234 234 234 236 236 233 231 231 232
99 98 95 95 95 94 94 90 86 84 82 80 79 78 75 71 68 63 58 56 55 51 44 40 36 31 29 26 21 18 16 15 13 12 11 11 9 7 3 358 356 358 358 356 356 356 353 347 344 344 345 345 340 337 333 326 323 316 308 303 300 295 287 282 282 277 266 254 254 262 256 244 238 244 244 241 238 235 235 234 234 234 234 234 234